Вернуться в каталог

STARLINK-34338

АктивенСвязьSSO
NORAD 64151·PAYLOAD·🇺🇸 United States

Запущен May 27, 2025 с Vandenberg Space Force Base

Loading…

Ближайшие Пролёты (ближайшие 24 часа)

TLE

СвежийSource: CelesTrak SupGP

Эпоха: Sep 15, 2026, 03:53 UTC

1 64151C 25112F   26258.16229167 -.00001659  00000+0 -51484-4 0  2581
2 64151  97.2837 305.2393 0000980  89.9874 342.8973 15.33440607    12

Отслеживайте STARLINK-34338 в реальном времени с AllMySat

Download on the App Store